CW3518 Weather Reports


Display with metric or nautical units.
time (UTC)temp
F
wind
direction
speed
MPH
gust
MPH
rain 1hr
in
rain 24hr
in
rain mn
in
humidity
%
barometer
mb
20260506021959 61 7 12.0 20.0 0.00 0.00 0.00 83 1009.1
20260506021459 61 9 14.0 20.0 0.00 0.00 0.00 82 1009.0
20260506020959 61 19 14.0 18.0 0.00 0.00 0.00 82 1008.8
20260506020500 61 34 12.0 17.0 0.00 0.00 0.00 82 1008.8
20260506015459 62 34 10.0 20.0 0.00 0.00 0.00 81 1008.2
20260506015000 62 17 16.0 20.0 0.00 0.00 0.00 80 1008.1
20260506014459 63 28 9.0 20.0 0.00 0.00 0.00 81 1008.1
20260506013529 64 29 15.0 18.0 0.00 0.00 0.00 79 1007.6
20260506012500 64 16 11.0 16.0 0.00 0.00 0.00 78 1007.3
20260506011959 65 0 15.0 16.0 0.00 0.00 0.00 77 1007.1
20260506011529 65 359 13.0 16.0 0.00 0.00 0.00 77 1006.8
20260506010959 65 3 15.0 16.0 0.00 0.00 0.00 77 1006.7
20260506010459 65 7 14.0 16.0 0.00 0.00 0.00 77 1006.7
20260506010029 65 4 10.0 16.0 0.00 0.00 0.00 76 1006.7
20260506004959 66 354 10.0 16.0 0.00 0.00 0.00 75 1006.7
20260506004459 66 343 7.0 16.0 0.00 0.00 0.00 75 1006.5
20260506003959 66 341 11.0 19.0 0.00 0.00 0.00 75 1006.6
20260506003459 66 346 12.0 19.0 0.00 0.00 0.00 74 1006.8
20260506002959 66 358 9.0 18.0 0.00 0.00 0.00 75 1006.7
20260506002459 66 0 9.0 18.0 0.00 0.00 0.00 75 1006.6
20260506001959 67 8 14.0 17.0 0.00 0.00 0.00 74 1006.3
20260506001459 67 6 15.0 17.0 0.00 0.00 0.00 73 1006.3
20260506000959 68 355 12.0 17.0 0.00 0.00 0.00 73 1006.3
20260506000459 68 353 14.0 18.0 0.00 0.00 0.00 72 1006.4
20260505235959 68 356 13.0 18.0 0.00 0.00 0.00 71 1006.6
20260505235459 69 351 12.0 19.0 0.00 0.00 0.00 72 1006.7
20260505234959 69 4 17.0 19.0 0.00 0.00 0.00 71 1006.4
20260505234000 70 348 14.0 18.0 0.00 0.00 0.00 70 1006.4
20260505233459 70 342 7.0 22.0 0.00 0.00 0.00 69 1006.3
20260505232959 71 342 18.0 22.0 0.00 0.00 0.00 68 1006.5
20260505232500 71 345 11.0 17.0 0.00 0.00 0.00 69 1006.2
20260505231959 71 335 12.0 17.0 0.00 0.00 0.00 68 1006.0
20260505231459 71 334 13.0 18.0 0.00 0.00 0.00 70 1006.4
20260505230959 71 352 15.0 18.0 0.00 0.00 0.00 69 1005.5
20260505230459 72 3 14.0 18.0 0.00 0.00 0.00 69 1006.0
20260505230029 72 333 14.0 19.0 0.00 0.00 0.00 69 1006.2
20260505225500 73 347 15.0 21.0 0.00 0.00 0.00 68 1006.0
20260505225000 73 337 17.0 21.0 0.00 0.00 0.00 67 1005.8
20260505224459 74 337 14.0 19.0 0.00 0.00 0.00 66 1005.9
20260505223959 75 342 17.0 19.0 0.00 0.00 0.00 65 1005.8
20260505223459 76 346 14.0 16.0 0.00 0.00 0.00 63 1005.8
20260505223000 77 343 12.0 16.0 0.00 0.00 0.00 62 1005.6
20260505222459 77 327 14.0 20.0 0.00 0.00 0.00 62 1005.5
20260505221000 78 333 13.0 17.0 0.00 0.00 0.00 61 1005.2
20260505220459 78 322 10.0 17.0 0.00 0.00 0.00 61 1005.1
20260505215959 79 307 17.0 18.0 0.00 0.00 0.00 60 1005.0
20260505215500 80 312 13.0 18.0 0.00 0.00 0.00 59 1005.0
20260505215000 80 331 15.0 18.0 0.00 0.00 0.00 58 1004.9
20260505214500 81 337 13.0 17.0 0.00 0.00 0.00 59 1004.7
20260505213959 81 331 12.0 18.0 0.00 0.00 0.00 59 1004.9
20260505213459 80 333 11.0 18.0 0.00 0.00 0.00 58 1004.9
20260505212459 81 330 15.0 18.0 0.00 0.00 0.00 58 1004.9
20260505212000 82 321 11.0 18.0 0.00 0.00 0.00 56 1004.8
20260505211459 82 303 14.0 18.0 0.00 0.00 0.00 54 1004.9
20260505210959 82 330 14.0 19.0 0.00 0.00 0.00 53 1005.0
20260505210459 83 303 14.0 19.0 0.00 0.00 0.00 52 1005.0
20260505205959 83 327 13.0 18.0 0.00 0.00 0.00 54 1005.1
20260505205459 83 306 12.0 16.0 0.00 0.00 0.00 54 1005.0
20260505204459 84 314 10.0 18.0 0.00 0.00 0.00 49 1005.1
20260505204000 83 322 9.0 18.0 0.00 0.00 0.00 47 1005.3
20260505203459 83 315 12.0 17.0 0.00 0.00 0.00 45 1005.2
20260505202959 84 299 10.0 18.0 0.00 0.00 0.00 44 1005.2
20260505202459 82 296 14.0 19.0 0.00 0.00 0.00 43 1005.2
20260505201959 82 296 13.0 20.0 0.00 0.00 0.00 42 1005.2
20260505201459 83 286 14.0 20.0 0.00 0.00 0.00 41 1005.0
20260505201001 84 295 17.0 20.0 0.00 0.00 0.00 41 1005.0
20260505200459 84 310 17.0 26.0 0.00 0.00 0.00 42 1005.2
20260505194959 86 252 14.0 19.0 0.00 0.00 0.00 47 1005.0
20260505194459 86 263 17.0 19.0 0.00 0.00 0.00 46 1005.0
20260505194000 85 255 15.0 18.0 0.00 0.00 0.00 46 1005.0
20260505193459 86 254 13.0 18.0 0.00 0.00 0.00 48 1005.0
20260505192959 85 247 14.0 18.0 0.00 0.00 0.00 50 1005.0
20260505192000 86 273 18.0 23.0 0.00 0.00 0.00 50 1005.1
20260505191500 86 263 19.0 21.0 0.00 0.00 0.00 51 1004.8
20260505190959 85 253 16.0 21.0 0.00 0.00 0.00 52 1004.8
20260505185959 85 233 15.0 22.0 0.00 0.00 0.00 57 1004.9
20260505185459 85 252 15.0 20.0 0.00 0.00 0.00 57 1004.8
20260505185000 85 244 15.0 19.0 0.00 0.00 0.00 57 1004.8
20260505183500 85 247 14.0 20.0 0.00 0.00 0.00 54 1004.7
20260505183000 85 236 12.0 21.0 0.00 0.00 0.00 54 1004.8
20260505182000 84 244 19.0 22.0 0.00 0.00 0.00 55 1004.9
20260505181459 84 240 17.0 19.0 0.00 0.00 0.00 54 1004.9
20260505181001 84 238 14.0 21.0 0.00 0.00 0.00 56 1004.9
20260505175959 83 251 17.0 22.0 0.00 0.00 0.00 56 1004.9
20260505175500 83 225 18.0 24.0 0.00 0.00 0.00 56 1004.9
20260505175000 83 214 13.0 24.0 0.00 0.00 0.00 60 1005.0
20260505174459 83 230 14.0 21.0 0.00 0.00 0.00 64 1005.0
20260505173459 83 218 14.0 19.0 0.00 0.00 0.00 65 1005.1
20260505173000 81 213 19.0 23.0 0.00 0.00 0.00 65 1004.9
20260505172000 81 230 14.0 23.0 0.00 0.00 0.00 66 1004.8
20260505170459 79 198 11.0 18.0 0.00 0.00 0.00 71 1004.8
20260505170030 79 192 7.0 20.0 0.00 0.00 0.00 71 1004.9
20260505165459 78 186 9.0 20.0 0.00 0.00 0.00 72 1004.9
20260505164959 78 191 7.0 18.0 0.00 0.00 0.00 74 1005.0
20260505164459 77 213 12.0 18.0 0.00 0.00 0.00 74 1004.9
20260505163959 77 205 11.0 18.0 0.00 0.00 0.00 74 1004.8
20260505163459 76 207 15.0 15.0 0.00 0.00 0.00 74 1004.7
20260505162959 76 198 13.0 15.0 0.00 0.00 0.00 75 1004.7
20260505162530 76 185 10.0 16.0 0.00 0.00 0.00 76 1004.7
20260505161529 76 210 9.0 16.0 0.00 0.00 0.00 76 1004.6
20260505161005 76 212 11.0 18.0 0.00 0.00 0.00 77 1004.8
20260505160529 76 207 11.0 18.0 0.00 0.00 0.00 76 1004.7
20260505152959 75 222 13.0 25.0 0.00 0.00 0.00 76 1004.4
20260505152501 75 213 13.0 25.0 0.00 0.00 0.00 76 1004.4
20260505151501 75 196 13.0 17.0 0.00 0.00 0.00 76 1004.2
20260505150959 75 224 17.0 17.0 0.00 0.00 0.00 76 1004.2
20260505150459 75 211 12.0 21.0 0.00 0.00 0.00 78 1004.3
20260505140459 72 205 11.0 16.0 0.00 0.00 0.00 83 1004.1
20260505125000 69 190 9.0 11.0 0.00 0.00 0.00 90 1004.1
20260505124459 69 188 9.0 11.0 0.00 0.00 0.00 90 1004.1
20260505123500 69 194 8.0 11.0 0.00 0.00 0.00 91 1004.0
20260505122459 69 186 7.0 12.0 0.00 0.00 0.00 92 1003.7
20260505121500 68 192 8.0 14.0 0.00 0.00 0.00 92 1003.4
20260505121001 68 199 10.0 14.0 0.00 0.00 0.00 92 1003.3
20260505120501 68 193 10.0 15.0 0.00 0.00 0.00 92 1003.3
20260505120031 68 198 9.0 15.0 0.00 0.00 0.00 92 1003.3
20260505115531 68 182 9.0 13.0 0.00 0.00 0.00 92 1003.4
20260505115001 68 192 9.0 13.0 0.00 0.00 0.00 92 1003.4
20260505114500 68 212 13.0 14.0 0.00 0.00 0.00 92 1003.4
20260505114000 68 193 10.0 14.0 0.00 0.00 0.00 92 1003.3
20260505113530 68 199 7.0 12.0 0.00 0.00 0.00 92 1003.3
20260505112459 68 200 11.0 13.0 0.00 0.00 0.00 92 1003.3
20260505111959 68 190 7.0 14.0 0.00 0.00 0.00 92 1003.4
20260505111459 68 204 10.0 14.0 0.00 0.00 0.00 92 1003.4
20260505111000 68 208 14.0 14.0 0.00 0.00 0.00 92 1003.3
20260505110500 68 203 11.0 13.0 0.00 0.00 0.00 92 1003.4
20260505102000 69 207 13.0 19.0 0.00 0.00 0.00 89 1003.3
20260505101500 69 208 16.0 19.0 0.00 0.00 0.00 89 1003.3
20260505101000 69 208 9.0 17.0 0.00 0.00 0.00 89 1003.4
20260505095500 69 194 12.0 17.0 0.00 0.00 0.00 88 1003.4
20260505094459 69 195 12.0 18.0 0.00 0.00 0.00 88 1003.4
20260505094000 70 201 9.0 18.0 0.00 0.00 0.00 87 1003.5
20260505092500 70 185 12.0 15.0 0.00 0.00 0.00 86 1003.2
20260505092000 70 196 10.0 15.0 0.00 0.00 0.00 86 1003.3
20260505091500 70 179 11.0 16.0 0.00 0.00 0.00 85 1003.3
20260505091000 70 194 14.0 19.0 0.00 0.00 0.00 85 1003.4
20260505090500 70 207 16.0 19.0 0.00 0.00 0.00 84 1003.5
20260505090000 70 198 10.0 18.0 0.00 0.00 0.00 84 1003.6
20260505085500 71 209 16.0 18.0 0.00 0.00 0.00 83 1003.5
20260505085000 71 195 13.0 18.0 0.00 0.00 0.00 83 1003.5
20260505084530 71 201 13.0 18.0 0.00 0.00 0.00 83 1003.4
20260505084000 71 189 12.0 18.0 0.00 0.00 0.00 82 1003.5
20260505083500 71 197 12.0 20.0 0.00 0.00 0.00 81 1003.6
20260505083000 71 186 14.0 21.0 0.00 0.00 0.00 81 1003.4
20260505082500 71 211 20.0 21.0 0.00 0.00 0.00 80 1003.4
20260505082000 71 195 14.0 20.0 0.00 0.00 0.00 80 1003.5
20260505081500 71 195 11.0 20.0 0.00 0.00 0.00 80 1003.6
20260505081000 71 207 12.0 20.0 0.00 0.00 0.00 80 1003.6
20260505080500 72 198 11.0 20.0 0.00 0.00 0.00 79 1003.5
20260505080000 71 202 15.0 16.0 0.00 0.00 0.00 79 1003.5
20260505075500 72 181 13.0 18.0 0.00 0.00 0.00 79 1003.5
20260505074500 72 201 14.0 17.0 0.00 0.00 0.00 78 1003.8
20260505074000 72 208 12.0 16.0 0.00 0.00 0.00 78 1003.9
20260505073500 72 185 10.0 16.0 0.00 0.00 0.00 78 1004.0
20260505073000 72 199 11.0 15.0 0.00 0.00 0.00 78 1004.1
20260505072500 72 202 13.0 16.0 0.00 0.00 0.00 77 1004.2
20260505072000 73 187 9.0 18.0 0.00 0.00 0.00 77 1004.5
20260505071500 73 195 13.0 19.0 0.00 0.00 0.00 76 1004.5
20260505071000 73 207 15.0 19.0 0.00 0.00 0.00 76 1004.6
20260505070000 73 209 15.0 18.0 0.00 0.00 0.00 75 1004.6
20260505065500 73 203 13.0 18.0 0.00 0.00 0.00 75 1004.7
20260505065000 73 203 17.0 20.0 0.00 0.00 0.00 74 1004.6
20260505064500 73 200 12.0 20.0 0.00 0.00 0.00 74 1004.7
20260505064000 73 193 13.0 18.0 0.00 0.00 0.00 74 1004.7
20260505063500 74 195 13.0 18.0 0.00 0.00 0.00 74 1004.8
20260505063000 74 196 17.0 19.0 0.00 0.00 0.00 73 1004.7
20260505062500 74 208 14.0 21.0 0.00 0.00 0.00 73 1004.7
20260505062000 74 199 11.0 21.0 0.00 0.00 0.00 73 1004.7
20260505061500 74 197 16.0 18.0 0.00 0.00 0.00 72 1004.8
20260505060500 74 189 15.0 26.0 0.00 0.00 0.00 72 1004.9
20260505060000 75 194 17.0 26.0 0.00 0.00 0.00 71 1005.0
20260505055500 75 205 15.0 17.0 0.00 0.00 0.00 71 1005.1
20260505055000 75 176 13.0 19.0 0.00 0.00 0.00 72 1005.0
20260505054000 75 190 18.0 19.0 0.00 0.00 0.00 71 1004.9
20260505053000 75 196 9.0 19.0 0.00 0.00 0.00 72 1005.0
20260505052000 75 181 12.0 18.0 0.00 0.00 0.00 72 1005.0
20260505051530 74 175 14.0 16.0 0.00 0.00 0.00 73 1005.0
20260505051001 74 192 16.0 16.0 0.00 0.00 0.00 73 1005.0
20260505050500 74 175 14.0 14.0 0.00 0.00 0.00 74 1005.1
20260505041500 73 170 10.0 18.0 0.00 0.00 0.00 75 1005.4
20260505040000 73 165 11.0 14.0 0.00 0.00 0.00 75 1005.4
20260505035500 73 169 11.0 13.0 0.00 0.00 0.00 75 1005.4
20260505035000 73 180 8.0 14.0 0.00 0.00 0.00 75 1005.4
20260505034500 73 165 9.0 15.0 0.00 0.00 0.00 74 1005.5
20260505033500 74 177 13.0 17.0 0.00 0.00 0.00 74 1005.3
20260505033000 74 166 13.0 18.0 0.00 0.00 0.00 73 1005.3
20260505032531 74 183 11.0 20.0 0.00 0.00 0.00 73 1005.2
20260505032000 74 160 12.0 20.0 0.00 0.00 0.00 73 1005.2
20260505031502 74 154 16.0 19.0 0.00 0.00 0.00 73 1005.2
20260505031000 73 166 10.0 17.0 0.00 0.00 0.00 74 1005.2
20260505030500 73 0 0.0 17.0 0.00 0.00 0.00 74 1005.4
20260505025500 73 158 13.0 13.0 0.00 0.00 0.00 74 1005.5
20260505025000 73 162 9.0 13.0 0.00 0.00 0.00 75 1005.5
20260505024501 73 145 11.0 15.0 0.00 0.00 0.00 75 1005.5
20260505024000 73 0 0.0 15.0 0.00 0.00 0.00 74 1005.5
20260505023500 73 0 0.0 14.0 0.00 0.00 0.00 74 1005.5
20260505023001 73 0 0.0 14.0 0.00 0.00 0.00 74 1005.4
20260505022500 73 0 0.0 15.0 0.00 0.00 0.00 74 1005.4